1516608001.06,8826,2.94,72280.3,-11.83,-46.89,-47.31,0,*5D
1516608002.33,8827,2.94,72282.8,-11.83,-46.89,-47.37,0,*5A
1516608003.57,8828,2.94,72282.5,-11.81,-46.83,-47.09,0,*50
1516608004.8,8829,2.94,72286.5,-11.81,-46.75,-46.97,0,*5E
1516608006.06,8830,2.94,72282.5,-11.81,-46.61,-47.09,0,*55
1516608007.3,8831,2.94,72280.3,-11.79,-46.75,-47.23,0,*5E
1516608008.57,8832,2.94,72280.0,-11.81,-46.97,-47.45,0,*56
1516608009.81,8833,2.94,72280.8,-11.83,-47.03,-47.51,0,*5C
1516608011.01,8834,2.94,72280.5,-11.83,-47.17,-47.57,0,*58
1516608012.27,8835,2.94,72282.3,-11.85,-47.03,-47.51,0,*5C
1516608013.48,8836,2.94,72284.0,-11.83,-47.17,-47.57,0,*5A
1516608014.69,8837,2.94,72282.3,-11.83,-47.09,-47.57,0,*54
1516608015.9,8838,2.94,72282.5,-11.83,-47.09,-47.51,0,*5D
1516608017.14,8839,2.94,72284.5,-11.83,-47.03,-47.51,0,*56
1516608018.4,8840,2.94,72282.0,-11.85,-46.89,-47.51,0,*5D
1516608019.66,8841,2.94,72280.3,-11.85,-47.03,-47.51,0,*5F
1516608020.9,8842,2.88,72278.5,-11.83,-46.89,-47.31,0,*5F
1516608022.11,8843,2.94,72282.8,-11.83,-47.17,-47.51,0,*5E
1516608023.33,8844,2.94,72280.0,-11.83,-47.09,-47.31,0,*50
1516608024.62,8845,2.94,72282.8,-11.85,-46.89,-47.37,0,*58
1516608025.88,8846,2.94,72280.8,-11.83,-47.03,-47.37,0,*5E
1516608027.1,8847,2.94,72282.5,-11.83,-46.83,-47.31,0,*50
1516608028.36,8848,2.94,72282.5,-11.83,-47.03,-47.37,0,*50
1516608029.62,8849,2.94,72280.8,-11.85,-47.03,-47.51,0,*57
1516608030.86,8850,2.94,72284.0,-11.85,-47.09,-47.51,0,*55
1516608032.12,8851,2.94,72286.3,-11.85,-47.03,-47.31,0,*58
1516608033.36,8852,2.94,72282.5,-11.85,-47.09,-47.51,0,*57
1516608034.64,8853,2.94,72286.3,-11.85,-47.03,-47.37,0,*5C
1516608035.87,8854,2.94,72286.8,-11.85,-47.09,-47.57,0,*57
1516608037.14,8855,2.94,72286.3,-11.85,-47.09,-47.37,0,*50
1516608038.35,8856,2.94,72284.5,-11.87,-47.17,-47.57,0,*58
1516608039.56,8857,2.94,72282.3,-11.87,-47.17,-47.65,0,*58
1516608040.77,8858,2.94,72284.3,-11.87,-47.17,-47.57,0,*56
1516608041.98,8859,2.94,72282.0,-11.87,-47.17,-47.57,0,*57
1516608043.19,8860,2.94,72282.3,-11.87,-46.97,-47.57,0,*54
1516608044.41,8861,2.94,72282.3,-11.87,-47.09,-47.57,0,*53
1516608045.65,8862,2.94,72280.0,-11.87,-46.97,-47.37,0,*50
1516608046.89,8863,2.94,72280.0,-11.89,-46.97,-47.57,0,*59
1516608048.13,8864,2.94,72284.0,-11.85,-47.09,-47.51,0,*52
1516608049.36,8865,2.94,72280.5,-11.85,-47.09,-47.51,0,*53
1516608050.63,8866,2.94,72282.0,-11.85,-46.89,-47.51,0,*59
1516608051.87,8867,2.88,72276.5,-11.87,-47.09,-47.45,0,*56
1516608053.14,8868,2.94,72284.0,-11.89,-46.97,-47.45,0,*51
1516608054.35,8869,2.94,72286.3,-11.87,-47.17,-47.57,0,*54
1516608055.56,8870,2.94,72282.8,-11.87,-47.17,-47.65,0,*5D
1516608056.77,8871,2.94,72280.5,-11.87,-47.09,-47.57,0,*52
1516608058.02,8872,2.94,72284.8,-11.87,-46.97,-47.37,0,*51
1516608059.29,8873,2.94,72284.3,-11.87,-46.89,-47.23,0,*5A
1516608060.56,8874,2.94,72280.5,-11.87,-46.89,-47.37,0,*58
1516608061.83,8875,2.94,72284.8,-11.87,-46.89,-47.37,0,*59
1516608063.1,8876,2.94,72282.8,-11.89,-46.97,-47.23,0,*5E
1516608064.37,8877,2.94,72282.8,-11.89,-46.97,-47.37,0,*5A
1516608065.61,8878,2.94,72284.3,-11.87,-46.97,-47.23,0,*5E
1516608066.86,8879,2.94,72280.3,-11.87,-46.97,-47.37,0,*5A
1516608068.1,8880,2.94,72286.3,-11.87,-46.97,-47.37,0,*5C
1516608069.37,8881,2.94,72282.5,-11.89,-47.09,-47.45,0,*50
1516608070.61,8882,2.94,72280.8,-11.87,-46.75,-47.23,0,*57
1516608071.9,8883,2.94,72280.0,-11.89,-46.89,-47.23,0,*5B
1516608073.17,8884,2.94,72278.8,-11.89,-46.97,-47.37,0,*56
1516608074.43,8885,2.94,72282.3,-11.89,-46.97,-47.45,0,*52
1516608075.7,8886,2.94,72282.8,-11.89,-46.97,-47.37,0,*54
1516608076.96,8887,2.94,72278.0,-11.89,-46.97,-47.37,0,*55
1516608078.23,8888,2.94,72284.3,-11.89,-46.97,-47.37,0,*5A
1516608079.48,8889,2.94,72280.5,-11.87,-46.97,-47.45,0,*50
1516608080.75,8890,2.94,72280.8,-11.89,-46.97,-47.45,0,*56
1516608082.01,8891,2.94,72280.3,-11.89,-47.09,-47.37,0,*54
1516608083.26,8892,2.94,72282.3,-11.87,-46.97,-47.23,0,*5A
1516608084.52,8893,2.94,72282.5,-11.89,-46.97,-47.45,0,*55
1516608085.79,8894,2.94,72282.3,-11.89,-47.09,-47.37,0,*51
1516608087.05,8895,2.94,72280.8,-11.89,-46.97,-47.37,0,*56
1516608088.29,8896,2.94,72280.8,-11.91,-47.03,-47.51,0,*50
1516608089.52,8897,2.94,72282.5,-11.91,-47.03,-47.51,0,*51
1516608090.76,8898,2.94,72280.0,-11.95,-47.03,-47.31,0,*5C
1516608092.0,8899,2.94,72282.3,-11.91,-47.03,-47.31,0,*59
1516608093.26,8900,2.94,72280.5,-11.89,-46.89,-47.09,0,*59
1516608094.48,8901,2.94,72282.0,-11.95,-46.97,-47.17,0,*55
1516608095.69,8902,2.94,72284.0,-11.91,-46.97,-47.31,0,*56
1516608096.96,8903,2.94,72284.0,-11.91,-47.03,-47.45,0,*58
1516608098.2,8904,2.94,72284.0,-11.91,-47.03,-47.31,0,*5C
1516608099.43,8905,2.94,72286.3,-11.91,-47.03,-47.31,0,*5D
1516608100.66,8906,2.94,72282.0,-11.95,-46.97,-47.31,0,*56
1516608101.87,8907,2.94,72282.8,-11.91,-46.97,-47.31,0,*53
1516608103.09,8908,2.94,72278.8,-11.91,-46.97,-47.31,0,*5C
1516608104.31,8909,2.94,72282.3,-11.91,-46.97,-47.31,0,*5D
1516608105.53,8910,2.94,72280.8,-11.91,-46.83,-47.31,0,*50
1516608106.75,8911,2.94,72282.0,-11.91,-46.83,-46.83,0,*59
1516608107.97,8912,2.94,72282.8,-11.91,-46.97,-47.31,0,*57
1516608109.24,8913,2.94,72282.0,-11.91,-47.03,-47.45,0,*59
1516608110.5,8914,2.94,72282.5,-11.95,-47.03,-47.45,0,*5A
1516608111.77,8915,2.94,72282.3,-11.91,-47.03,-47.45,0,*5F
1516608113.0,8916,2.94,72282.3,-11.91,-47.03,-47.51,0,*59
1516608114.23,8917,2.94,72278.5,-11.91,-47.03,-47.51,0,*58
1516608115.45,8918,2.94,72278.0,-11.95,-46.97,-47.17,0,*5D
1516608116.67,8919,2.94,72282.0,-11.95,-46.75,-46.83,0,*5C
1516608117.9,8920,2.94,72280.0,-11.95,-46.75,-47.03,0,*5F
1516608119.11,8921,2.94,72282.0,-11.95,-46.97,-47.17,0,*57
1516608120.35,8922,2.94,72280.8,-11.95,-46.97,-47.03,0,*51
1516608121.56,8923,2.94,72282.3,-11.95,-46.97,-47.17,0,*55
1516608122.78,8924,2.94,72280.8,-11.95,-46.97,-47.17,0,*52
1516608124.02,8925,2.94,72282.5,-11.95,-46.83,-47.03,0,*53
1516608125.23,8926,2.94,72280.5,-11.95,-46.97,-47.31,0,*54
1516608126.47,8927,2.94,72280.5,-11.95,-46.83,-47.03,0,*51
1516608127.72,8928,2.94,72280.0,-11.95,-46.97,-47.45,0,*59
1516608128.93,8929,2.94,72278.8,-11.95,-46.97,-47.17,0,*5F
1516608130.15,8930,2.94,72282.5,-11.95,-46.83,-47.17,0,*52
1516608131.36,8931,2.94,72282.0,-11.95,-46.97,-47.31,0,*52
1516608132.6,8932,2.94,72282.0,-11.95,-47.03,-47.31,0,*5D
1516608133.82,8933,2.94,72282.3,-11.95,-46.97,-47.17,0,*54
1516608135.04,8934,2.94,72282.3,-11.95,-46.83,-46.97,0,*5F
1516608136.27,8935,2.94,72280.3,-11.95,-46.61,-46.97,0,*52
1516608137.49,8936,2.94,72280.0,-11.95,-46.75,-46.83,0,*51
1516608138.72,8937,2.94,72282.3,-11.95,-46.75,-47.03,0,*59
1516608139.93,8938,2.94,72280.8,-11.95,-46.83,-47.17,0,*5A
1516608141.15,8939,2.94,72284.0,-11.95,-46.97,-47.17,0,*5E
1516608142.36,8940,2.94,72282.5,-11.95,-46.83,-47.17,0,*55
1516608143.58,8941,2.94,72280.3,-11.95,-46.97,-47.31,0,*55
1516608144.8,8942,2.94,72280.0,-11.95,-46.97,-47.31,0,*56
1516608146.04,8943,2.94,72282.8,-11.97,-47.09,-47.51,0,*55
1516608147.32,8944,2.94,72282.3,-11.97,-47.03,-47.23,0,*5D
1516608148.58,8945,2.94,72280.3,-11.97,-46.83,-47.03,0,*57
1516608149.87,8946,2.94,72280.0,-11.97,-46.69,-46.89,0,*53
1516608151.16,8947,2.94,72282.3,-11.97,-46.69,-46.89,0,*52
1516608152.42,8948,2.94,72282.3,-11.97,-47.09,-47.37,0,*5E
1516608153.66,8949,2.94,72280.5,-11.95,-47.03,-47.31,0,*51
1516608154.94,8950,2.94,72282.5,-11.97,-47.23,-47.37,0,*5F
1516608156.24,8951,2.94,72280.0,-11.97,-46.89,-47.23,0,*5A
1516608157.47,8952,2.94,72280.8,-11.99,-47.23,-47.57,0,*55
1516608158.68,8953,2.94,72280.0,-11.99,-47.09,-47.51,0,*5A
1516608159.89,8954,2.94,72280.5,-11.99,-47.09,-47.51,0,*5D
1516608161.15,8955,2.94,72284.5,-11.99,-47.03,-47.23,0,*53
1516608162.42,8956,2.94,72282.3,-11.99,-46.89,-47.23,0,*53
1516608163.68,8957,2.94,72282.5,-11.99,-47.03,-47.23,0,*51
1516608164.92,8958,2.94,72282.3,-11.99,-46.49,-46.83,0,*5A
1516608166.18,8959,2.94,72280.3,-11.99,-46.69,-46.89,0,*53
1516608167.43,8960,2.94,72282.5,-11.99,-46.69,-47.03,0,*5A
1516608168.69,8961,2.94,72282.5,-11.99,-46.41,-46.61,0,*54
1516608169.97,8962,2.94,72286.5,-11.97,-46.49,-46.61,0,*51
1516608171.24,8963,2.94,72284.3,-11.97,-46.49,-46.83,0,*5C
1516608172.48,8964,2.94,72282.5,-11.99,-46.83,-46.89,0,*59
1516608173.75,8965,2.94,72284.3,-11.97,-46.89,-47.09,0,*55
1516608174.98,8966,2.94,72282.3,-11.99,-46.69,-47.09,0,*56
1516608176.23,8967,2.94,72282.0,-11.99,-46.69,-47.03,0,*5D
1516608177.46,8968,2.94,72280.8,-11.99,-46.69,-47.09,0,*58
1516608178.7,8969,2.94,72280.5,-11.99,-47.03,-47.09,0,*54
1516608179.98,8970,2.94,72280.3,-11.97,-47.03,-47.23,0,*5A
1516608181.25,8971,2.94,72284.0,-11.99,-46.89,-47.23,0,*56
1516608182.52,8972,2.94,72286.5,-11.99,-46.89,-47.23,0,*55
1516608183.75,8973,2.94,72282.0,-11.99,-46.89,-47.09,0,*5C
1516608185.01,8974,2.94,72280.0,-11.99,-46.69,-47.03,0,*5F
1516608186.27,8975,2.94,72282.3,-11.99,-46.27,-46.69,0,*59
1516608187.56,8976,2.94,72282.8,-11.97,-46.69,-46.89,0,*50
1516608188.82,8977,2.94,72284.0,-11.99,-46.69,-46.89,0,*5F
1516608190.08,8978,2.94,72284.0,-11.97,-45.87,-46.27,0,*59
1516608191.33,8979,2.94,72280.3,-11.99,-46.41,-46.69,0,*55
1516608192.62,8980,2.94,72280.8,-11.97,-46.41,-46.69,0,*5D
1516608193.87,8981,2.94,72282.0,-11.99,-46.41,-46.69,0,*52
1516608195.13,8982,2.94,72282.8,-11.99,-46.49,-46.89,0,*57
1516608196.41,8983,2.94,72282.3,-11.97,-46.69,-47.03,0,*59
1516608197.65,8984,2.94,72282.5,-11.99,-46.69,-47.09,0,*5A
1516608198.91,8985,2.94,72280.8,-11.99,-46.27,-46.69,0,*56
1516608200.16,8986,2.94,72284.5,-11.99,-46.41,-46.61,0,*5D
1516608201.43,8987,2.94,72282.8,-11.99,-46.27,-46.69,0,*54
1516608202.68,8988,2.94,72280.3,-11.99,-46.41,-46.69,0,*5B
1516608203.97,8989,2.94,72284.3,-11.97,-46.61,-46.89,0,*58
1516608205.21,8990,2.94,72282.5,-11.99,-46.61,-46.83,0,*54
1516608206.46,8991,2.94,72280.3,-11.97,-46.21,-46.61,0,*53
1516608207.7,8992,2.94,72282.5,-11.99,-46.21,-46.49,0,*54
1516608208.97,8993,2.94,72280.3,-11.97,-46.21,-46.49,0,*5B
1516608210.26,8994,2.94,72284.3,-11.97,-46.27,-46.69,0,*58
1516608211.55,8995,2.94,72282.0,-11.97,-46.27,-46.61,0,*51
1516608212.83,8996,2.94,72280.3,-11.97,-46.41,-46.69,0,*5A
1516608214.09,8997,2.94,72282.3,-11.97,-46.41,-46.83,0,*5F
1516608215.36,8998,2.94,72282.5,-11.97,-46.49,-46.83,0,*58
1516608216.63,8999,2.94,72282.8,-11.97,-46.49,-46.83,0,*59
1516608217.91,9000,2.94,72284.5,-11.97,-46.69,-46.89,0,*59
1516608219.17,9001,2.94,72280.0,-11.99,-46.49,-47.03,0,*57
1516608220.46,9002,2.94,72284.5,-11.97,-46.49,-47.03,0,*5A
1516608221.71,9003,2.94,72282.0,-11.97,-46.21,-46.61,0,*50
1516608223.0,9004,2.94,72282.3,-11.97,-46.61,-46.89,0,*55
1516608224.29,9005,2.94,72280.0,-11.97,-46.69,-46.89,0,*5C
1516608225.55,9006,2.94,72282.5,-11.97,-46.41,-46.83,0,*5F
1516608226.79,9007,2.94,72280.8,-11.95,-46.35,-46.61,0,*53
1516608228.05,9008,2.94,72286.3,-11.97,-46.41,-46.83,0,*51
1516608229.32,9009,2.94,72286.5,-11.97,-46.27,-46.83,0,*50
1516608230.59,9010,2.94,72284.5,-11.97,-46.61,-46.83,0,*5A
1516608231.83,9011,2.94,72286.0,-11.95,-46.15,-46.55,0,*51
1516608233.12,9012,2.94,72280.5,-11.97,-46.27,-46.69,0,*5E
1516608234.35,9013,2.94,72276.8,-11.95,-46.21,-46.61,0,*53
1516608235.59,9014,2.94,72280.5,-11.95,-46.41,-46.83,0,*5E
1516608236.81,9015,2.94,72276.3,-11.95,-46.83,-47.17,0,*5D
1516608238.04,9016,2.94,72276.8,-11.95,-46.83,-47.03,0,*5B
1516608239.3,9017,2.94,72282.0,-11.97,-46.69,-47.09,0,*56
1516608240.59,9018,2.94,72282.0,-11.97,-46.61,-46.89,0,*58
1516608241.85,9019,2.94,72280.5,-11.99,-46.69,-46.89,0,*5F
1516608243.11,9020,2.94,72284.0,-11.97,-46.61,-47.09,0,*5A
1516608244.37,9021,2.94,72280.0,-11.97,-46.41,-46.83,0,*5A
1516608245.62,9022,2.94,72284.3,-11.97,-46.61,-47.09,0,*58
1516608246.91,9023,2.94,72282.3,-11.97,-46.61,-47.03,0,*53
1516608248.2,9024,2.94,72282.0,-11.97,-46.27,-46.69,0,*5B
1516608249.48,9025,2.94,72278.5,-11.97,-46.27,-46.61,0,*52
1516608250.74,9026,2.94,72282.3,-11.97,-46.21,-46.61,0,*57
1516608251.95,9027,2.94,72284.5,-11.95,-46.21,-46.75,0,*51
1516608253.17,9028,2.94,72280.3,-11.95,-46.21,-46.75,0,*5E
1516608254.43,9029,2.94,72280.0,-11.97,-46.21,-46.49,0,*52
1516608255.67,9030,2.94,72282.3,-11.95,-46.01,-46.41,0,*52
1516608256.91,9031,2.94,72284.3,-11.95,-45.95,-46.41,0,*5D
1516608258.15,9032,2.94,72284.3,-11.95,-46.01,-46.41,0,*50
1516608259.37,9033,2.94,72286.0,-11.95,-46.01,-46.35,0,*52
1516608260.64,9034,2.94,72284.0,-11.91,-46.15,-46.41,0,*57
1516608261.85,9035,2.94,72284.3,-11.95,-46.35,-46.55,0,*55
1516608263.1,9036,2.94,72282.5,-11.91,-46.15,-46.55,0,*50
1516608264.34,9037,2.94,72286.0,-11.91,-46.15,-46.55,0,*51
1516608265.58,9038,2.94,72284.3,-11.91,-46.01,-46.41,0,*5E
1516608266.82,9039,2.94,72286.0,-11.91,-46.01,-46.41,0,*5F
1516608268.04,9040,2.94,72286.0,-11.95,-46.35,-46.75,0,*55
1516608269.26,9041,2.94,72284.5,-11.91,-46.21,-46.55,0,*57
1516608270.49,9042,2.94,72284.3,-11.91,-45.95,-46.41,0,*5D
1516608271.71,9043,2.94,72282.3,-11.91,-45.95,-46.21,0,*5A
1516608272.94,9044,2.94,72284.8,-11.91,-45.81,-46.21,0,*58
1516608274.17,9045,2.94,72284.8,-11.91,-45.81,-46.21,0,*59
1516608275.41,9046,2.94,72286.0,-11.91,-46.01,-46.41,0,*57
1516608276.68,9047,2.94,72284.8,-11.91,-46.15,-46.41,0,*53
1516608277.95,9048,2.94,72284.0,-11.91,-46.15,-46.41,0,*5C
1516608279.17,9049,2.94,72286.5,-11.91,-46.35,-46.75,0,*58
1516608280.46,9050,2.94,72282.8,-11.89,-46.27,-46.49,0,*55
1516608281.75,9051,2.94,72284.5,-11.89,-46.07,-46.49,0,*56
1516608282.99,9052,2.94,72280.8,-11.89,-45.95,-46.35,0,*56
1516608284.22,9053,2.94,72282.0,-11.89,-45.87,-46.35,0,*54
1516608285.48,9054,2.94,72284.0,-11.87,-45.73,-46.27,0,*55
1516608286.75,9055,2.94,72280.8,-11.89,-45.95,-46.27,0,*52
1516608288.01,9056,2.94,72282.8,-11.89,-46.07,-46.35,0,*5A
1516608289.27,9057,2.94,72284.3,-11.87,-45.73,-46.27,0,*56
1516608290.54,9058,2.94,72284.0,-11.87,-45.73,-46.27,0,*59
1516608291.78,9059,2.94,72280.3,-11.87,-45.67,-46.07,0,*5F
1516608293.04,9060,2.94,72282.8,-11.87,-45.73,-46.15,0,*53
1516608294.28,9061,2.94,72284.0,-11.87,-45.87,-46.27,0,*58
1516608295.56,9062,2.94,72282.0,-11.87,-46.07,-46.49,0,*58
1516608296.77,9063,2.94,72284.5,-11.87,-45.95,-46.35,0,*5A
1516608298.04,9064,2.94,72286.5,-11.87,-46.27,-46.69,0,*5E
1516608299.32,9065,2.94,72284.0,-11.87,-46.15,-46.49,0,*5C
1516608300.58,9066,2.94,72286.8,-11.85,-46.01,-46.41,0,*50
1516608301.85,9067,2.94,72284.5,-11.85,-46.01,-46.49,0,*59
1516608303.13,9068,2.94,72282.5,-11.85,-45.81,-46.41,0,*55
1516608304.39,9069,2.94,72282.3,-11.85,-45.87,-46.27,0,*52
1516608305.65,9070,2.94,72280.5,-11.85,-46.21,-46.41,0,*55
1516608306.91,9071,2.94,72280.5,-11.85,-46.21,-46.61,0,*56
1516608308.18,9072,2.94,72282.3,-11.85,-46.01,-46.41,0,*55
1516608309.43,9073,2.94,72282.3,-11.85,-45.81,-46.21,0,*59
1516608310.72,9074,2.94,72282.8,-11.85,-46.07,-46.49,0,*5D
1516608311.98,9075,2.94,72284.3,-11.85,-45.87,-46.41,0,*5F
1516608313.24,9076,2.94,72286.3,-11.85,-45.87,-46.41,0,*5C
1516608314.51,9077,2.94,72284.8,-11.85,-46.01,-46.27,0,*50
1516608315.74,9078,2.94,72286.3,-11.83,-45.81,-46.21,0,*54
1516608316.98,9079,2.94,72284.0,-11.85,-45.87,-46.21,0,*55
1516608318.24,9080,2.94,72284.5,-11.85,-45.67,-46.07,0,*59
1516608319.46,9081,2.94,72282.0,-11.83,-45.61,-46.01,0,*5E
1516608320.67,9082,2.94,72280.8,-11.83,-45.67,-46.21,0,*59
1516608321.91,9083,2.94,72284.3,-11.83,-45.87,-46.27,0,*50
1516608323.14,9084,2.94,72284.5,-11.83,-45.81,-46.21,0,*57
1516608324.36,9085,2.94,72282.0,-11.83,-45.67,-46.21,0,*5E
1516608325.58,9086,2.94,72286.0,-11.83,-45.61,-46.01,0,*59
1516608326.81,9087,2.94,72284.3,-11.83,-45.81,-46.21,0,*54
1516608328.05,9088,2.94,72280.8,-11.81,-45.95,-46.21,0,*5C
1516608329.34,9089,2.94,72286.0,-11.81,-45.47,-45.81,0,*5B
1516608330.6,9090,2.94,72284.8,-11.81,-45.47,-45.95,0,*56
1516608331.83,9091,2.94,72286.0,-11.79,-45.81,-46.21,0,*56
1516608333.1,9092,2.94,72282.8,-11.81,-46.15,-46.35,0,*59
1516608334.34,9093,2.94,72286.3,-11.81,-46.21,-46.55,0,*59
1516608335.58,9094,2.94,72282.5,-11.81,-45.95,-46.35,0,*54
1516608336.82,9095,2.94,72282.5,-11.79,-45.81,-46.21,0,*52
1516608338.05,9096,2.94,72282.0,-11.79,-45.73,-46.21,0,*5C
1516608339.31,9097,2.94,72286.3,-11.79,-45.81,-46.41,0,*56
1516608340.55,9098,2.94,72286.8,-11.79,-46.01,-46.41,0,*52
1516608341.76,9099,2.94,72284.3,-11.79,-45.95,-46.21,0,*5B
1516608343.02,9100,2.94,72286.8,-11.81,-45.81,-46.21,0,*58
1516608344.25,9101,2.94,72286.0,-11.79,-45.81,-46.21,0,*5E
1516608345.46,9102,2.94,72282.3,-11.79,-45.61,-45.95,0,*5F
1516608346.69,9103,2.94,72284.8,-11.79,-45.53,-46.01,0,*51
1516608347.9,9104,2.94,72282.3,-11.79,-45.53,-45.95,0,*58
1516608349.13,9105,2.94,72284.3,-11.79,-45.61,-46.01,0,*56
1516608350.36,9106,2.94,72282.3,-11.79,-45.73,-46.21,0,*54
1516608351.59,9107,2.94,72284.3,-11.79,-45.47,-45.95,0,*5E
1516608352.86,9108,2.94,72286.8,-11.73,-45.53,-46.07,0,*56
1516608354.12,9109,2.94,72284.0,-11.73,-45.67,-46.07,0,*50
1516608355.36,9110,2.94,72286.0,-11.75,-45.95,-46.49,0,*59
1516608356.61,9111,2.94,72282.5,-11.75,-45.73,-46.27,0,*58
1516608357.87,9112,2.94,72284.5,-11.75,-45.73,-46.15,0,*5A
1516608359.11,9113,2.94,72286.8,-11.75,-45.67,-46.07,0,*5D
1516608360.35,9114,2.94,72284.3,-11.75,-45.53,-46.07,0,*5D
1516608361.62,9115,2.94,72284.5,-11.73,-45.53,-46.07,0,*5A
1516608362.89,9116,2.94,72282.0,-11.73,-45.53,-46.07,0,*59
1516608364.17,9117,2.94,72286.3,-11.73,-46.07,-46.49,0,*50
1516608365.45,9118,2.94,72284.8,-11.73,-45.73,-46.07,0,*55
1516608366.71,9119,2.94,72284.3,-11.73,-45.87,-46.27,0,*5D
1516608367.99,9120,2.94,72284.8,-11.73,-45.73,-46.07,0,*5E
1516608369.25,9121,2.94,72286.0,-11.73,-45.47,-45.87,0,*53
1516608370.51,9122,2.94,72284.5,-11.73,-45.27,-45.67,0,*58
1516608371.75,9123,2.94,72286.3,-11.71,-45.41,-45.87,0,*55
1516608372.99,9124,2.94,72286.0,-11.71,-45.33,-45.61,0,*5F
1516608374.23,9125,2.94,72286.5,-11.71,-45.21,-45.61,0,*5D
1516608375.45,9126,2.94,72284.5,-11.69,-45.67,-46.01,0,*50
1516608376.71,9127,2.94,72282.5,-11.71,-45.81,-46.21,0,*52
1516608377.95,9128,2.94,72280.0,-11.69,-45.47,-45.87,0,*51
1516608379.19,9129,2.94,72286.0,-11.71,-45.41,-46.01,0,*52
1516608380.4,9130,2.94,72282.3,-11.69,-45.33,-45.87,0,*5B
1516608381.63,9131,2.94,72286.0,-11.69,-45.47,-45.87,0,*59
1516608382.93,9132,2.94,72286.8,-11.67,-45.27,-45.73,0,*59
1516608384.18,9133,2.94,72286.5,-11.67,-45.33,-45.73,0,*5D
1516608385.44,9134,2.94,72282.8,-11.67,-45.53,-45.81,0,*51
1516608386.72,9135,2.94,72286.3,-11.67,-45.27,-45.53,0,*5C
1516608387.94,9136,2.94,72280.8,-11.65,-45.33,-45.73,0,*5A
1516608389.21,9137,2.94,72286.8,-11.67,-45.53,-45.81,0,*52
1516608390.46,9138,2.94,72286.5,-11.65,-45.27,-45.53,0,*53
1516608391.7,9139,2.94,72286.3,-11.65,-45.27,-45.41,0,*51
1516608392.94,9140,2.94,72282.3,-11.65,-45.41,-45.81,0,*53
1516608394.17,9141,2.94,72286.8,-11.65,-46.21,-46.61,0,*5A
1516608395.38,9142,2.94,72284.5,-11.61,-45.53,-45.87,0,*50
1516608396.58,9143,2.94,72280.0,-11.61,-45.33,-45.87,0,*57
1516608397.85,9144,2.94,72286.8,-11.61,-45.27,-45.73,0,*5E
1516608399.1,9145,2.94,72284.3,-11.59,-45.41,-45.81,0,*59
1516608400.36,9146,2.94,72286.8,-11.59,-45.47,-45.87,0,*5A
1516608401.62,9147,2.94,72286.3,-11.59,-45.47,-45.67,0,*55
1516608402.87,9148,2.94,72284.3,-11.59,-45.41,-45.81,0,*54
1516608404.14,9149,2.94,72282.0,-11.59,-45.27,-45.67,0,*5D
1516608405.4,9150,2.94,72284.3,-11.59,-45.41,-45.81,0,*5D
1516608406.65,9151,2.94,72288.5,-11.59,-45.41,-45.81,0,*5C
1516608407.92,9152,2.94,72282.8,-11.59,-45.47,-46.01,0,*52
1516608409.16,9153,2.94,72286.0,-11.57,-45.61,-46.07,0,*5F
1516608410.38,9154,2.94,72286.3,-11.57,-45.81,-46.21,0,*52
1516608411.64,9155,2.94,72286.5,-11.57,-45.47,-45.81,0,*50
1516608412.88,9156,2.94,72284.0,-11.57,-45.61,-45.81,0,*57
1516608414.11,9157,2.94,72286.8,-11.57,-45.67,-46.07,0,*5D
1516608415.33,9158,2.94,72286.3,-11.57,-45.61,-46.01,0,*52
1516608416.56,9159,2.94,72284.0,-11.55,-45.61,-45.95,0,*5F
1516608417.8,9160,2.94,72288.8,-11.55,-45.61,-46.01,0,*5B
1516608419.07,9161,2.94,72286.8,-11.57,-45.27,-45.81,0,*51
1516608420.34,9162,2.94,72284.8,-11.55,-45.53,-45.81,0,*53
1516608421.62,9163,2.94,72288.5,-11.55,-45.73,-46.15,0,*5E
1516608422.84,9164,2.94,72284.0,-11.57,-45.61,-46.01,0,*5D
1516608424.08,9165,2.94,72286.8,-11.55,-45.61,-46.01,0,*5E
1516608425.34,9166,3.0,72288.3,-11.55,-45.53,-45.81,0,*57
1516608426.58,9167,2.94,72282.8,-11.55,-45.61,-46.01,0,*5C
1516608427.84,9168,2.94,72284.3,-11.55,-45.73,-46.01,0,*50
1516608429.08,9169,2.94,72286.0,-11.55,-45.61,-45.95,0,*5C
1516608430.33,9170,2.94,72286.5,-11.55,-45.53,-46.01,0,*5B
1516608431.56,9171,2.94,72286.5,-11.55,-45.41,-45.95,0,*57
1516608432.82,9172,2.94,72286.5,-11.55,-45.95,-46.15,0,*56
1516608434.11,9173,2.94,72284.0,-11.55,-46.15,-46.41,0,*5D
1516608435.37,9174,2.94,72284.3,-11.51,-46.01,-46.41,0,*5B
1516608436.65,9175,2.94,72284.5,-11.51,-46.15,-46.69,0,*55
1516608437.89,9176,2.94,72286.5,-11.49,-46.07,-46.35,0,*55
1516608439.13,9177,2.94,72284.5,-11.55,-46.01,-46.35,0,*5F
1516608440.41,9178,2.94,72286.3,-11.55,-45.73,-46.15,0,*54
1516608441.69,9179,2.94,72286.3,-11.51,-45.73,-46.15,0,*51
1516608442.95,9180,2.94,72286.3,-11.51,-45.61,-46.07,0,*57
1516608444.19,9181,2.94,72288.8,-11.51,-45.53,-45.95,0,*5F
1516608445.42,9182,2.94,72286.5,-11.51,-46.01,-46.21,0,*54
1516608446.65,9183,2.94,72286.8,-11.49,-45.95,-46.27,0,*54
1516608447.92,9184,2.94,72284.3,-11.51,-45.95,-46.15,0,*5B
1516608449.17,9185,2.94,72284.0,-11.51,-45.73,-46.21,0,*55
1516608450.42,9186,2.94,72286.0,-11.49,-45.73,-46.27,0,*59
1516608451.65,9187,2.94,72290.8,-11.49,-45.67,-46.07,0,*5F
1516608452.89,9188,2.94,72286.5,-11.51,-45.61,-46.01,0,*59
1516608454.12,9189,2.94,72286.5,-11.49,-45.33,-45.73,0,*50
1516608455.34,9190,2.94,72286.0,-11.51,-45.33,-45.95,0,*59
1516608456.55,9191,2.94,72284.5,-11.49,-45.53,-45.95,0,*57
1516608457.76,9192,2.94,72284.3,-11.49,-45.53,-45.95,0,*54
1516608459.04,9193,2.94,72288.5,-11.51,-45.73,-46.15,0,*55
1516608460.28,9194,2.94,72286.8,-11.49,-45.67,-46.07,0,*5D
1516608461.48,9195,2.94,72284.5,-11.49,-45.67,-45.95,0,*54
1516608462.72,9196,2.94,72284.8,-11.49,-45.87,-46.15,0,*52
1516608463.97,9197,2.94,72288.0,-11.49,-45.73,-46.15,0,*58
1516608465.25,9198,2.94,72286.3,-11.47,-45.73,-46.15,0,*59
1516608466.52,9199,2.94,72284.5,-11.47,-45.53,-46.07,0,*59
1516608467.8,9200,2.94,72282.3,-11.47,-45.73,-46.07,0,*58
1516608469.04,9201,2.94,72282.3,-11.45,-45.67,-46.07,0,*5E
1516608470.3,9202,2.94,72284.0,-11.47,-46.07,-46.35,0,*5B
1516608471.56,9203,2.94,72288.5,-11.47,-45.95,-46.15,0,*50
1516608472.86,9204,2.94,72284.3,-11.47,-46.27,-46.49,0,*54
1516608474.14,9205,2.94,72284.5,-11.47,-46.15,-46.61,0,*5E
1516608475.37,9206,2.94,72282.8,-11.45,-46.21,-46.69,0,*50
1516608476.62,9207,2.94,72286.3,-11.47,-46.35,-46.83,0,*52
1516608477.9,9208,2.94,72290.3,-11.47,-46.27,-46.61,0,*52
1516608479.16,9209,2.94,72290.8,-11.47,-46.07,-46.35,0,*50
1516608480.4,9210,2.94,72286.5,-11.49,-45.95,-46.27,0,*5D
1516608481.65,9211,2.94,72286.3,-11.49,-46.07,-46.61,0,*56
1516608482.88,9212,3.0,72290.3,-11.49,-45.95,-46.27,0,*5F
1516608484.17,9213,2.94,72284.5,-11.47,-45.73,-46.07,0,*5A
1516608485.46,9214,2.94,72288.8,-11.47,-46.07,-46.49,0,*57
1516608486.72,9215,2.94,72286.8,-11.47,-46.15,-46.75,0,*5A
1516608487.98,9216,2.94,72286.3,-11.47,-46.07,-46.35,0,*5E
1516608489.21,9217,2.94,72288.5,-11.47,-45.67,-45.95,0,*53
1516608490.47,9218,2.94,72286.3,-11.47,-45.95,-46.27,0,*5B
1516608491.76,9219,2.94,72288.3,-11.47,-46.07,-46.49,0,*5A
1516608493.04,9220,2.94,72286.5,-11.47,-45.73,-46.27,0,*58
1516608494.31,9221,2.94,72288.3,-11.47,-46.27,-46.75,0,*5C
1516608495.54,9222,2.94,72286.0,-11.49,-45.67,-46.07,0,*53
1516608496.83,9223,2.94,72286.8,-11.47,-45.73,-46.15,0,*5A
1516608498.04,9224,2.94,72284.5,-11.45,-45.53,-45.95,0,*56
1516608499.27,9225,2.94,72284.8,-11.47,-45.67,-45.95,0,*52
1516608500.56,9226,2.94,72286.0,-11.47,-46.07,-46.49,0,*56
1516608501.82,9227,2.94,72286.3,-11.47,-45.95,-46.27,0,*57
1516608503.05,9228,2.94,72290.8,-11.45,-45.87,-46.07,0,*5B
1516608504.31,9229,2.94,72284.0,-11.47,-45.87,-46.07,0,*58
1516608505.57,9230,2.94,72288.8,-11.47,-45.67,-46.07,0,*5E
1516608506.8,9231,2.94,72286.8,-11.45,-45.47,-45.87,0,*54
1516608508.01,9232,2.94,72290.0,-11.45,-45.87,-46.21,0,*54